status,avgMeasuredTime,avgSpeed,extID,medianMeasuredTime,TIMESTAMP,vehicleCount,_id,REPORT_ID
OK,101,36,810,101,2014-08-01T07:55:00,5,20746534,180547
OK,90,40,810,90,2014-08-01T08:00:00,4,20746865,180547
OK,97,37,810,97,2014-08-01T08:05:00,10,20747314,180547
OK,96,38,810,96,2014-08-01T08:10:00,11,20747687,180547
OK,86,42,810,86,2014-08-01T08:15:00,8,20748136,180547
OK,85,43,810,85,2014-08-01T08:20:00,8,20748585,180547
OK,70,52,810,70,2014-08-01T08:25:00,6,20749034,180547
OK,70,52,810,70,2014-08-01T08:30:00,6,20749483,180547
OK,74,49,810,74,2014-08-01T08:35:00,10,20749932,180547
OK,75,48,810,75,2014-08-01T08:40:00,15,20750381,180547
OK,72,51,810,72,2014-08-01T08:45:00,12,20750830,180547
OK,77,47,810,77,2014-08-01T08:50:00,9,20751279,180547
OK,77,47,810,77,2014-08-01T08:55:00,9,20751728,180547
OK,72,51,810,72,2014-08-01T09:00:00,10,20752177,180547
OK,64,57,810,64,2014-08-01T09:05:00,15,20752626,180547
OK,63,58,810,63,2014-08-01T09:10:00,8,20753075,180547
OK,83,44,810,83,2014-08-01T09:15:00,8,20753524,180547
OK,63,58,810,63,2014-08-01T09:20:00,8,20753973,180547
OK,61,60,810,61,2014-08-01T09:25:00,7,20754422,180547
OK,85,43,810,85,2014-08-01T09:30:00,6,20754871,180547
OK,75,48,810,75,2014-08-01T09:35:00,7,20755320,180547
OK,73,50,810,73,2014-08-01T09:40:00,6,20755769,180547
OK,70,52,810,70,2014-08-01T09:45:00,10,20756218,180547
OK,70,52,810,70,2014-08-01T09:50:00,11,20756667,180547
OK,86,42,810,86,2014-08-01T09:55:00,6,20757116,180547
OK,82,44,810,82,2014-08-01T10:00:00,7,20757565,180547
OK,67,54,810,67,2014-08-01T10:05:00,9,20758014,180547
OK,98,37,810,98,2014-08-01T10:10:00,6,20758463,180547
OK,93,39,810,93,2014-08-01T10:15:00,9,20758912,180547
OK,77,47,810,77,2014-08-01T10:20:00,11,20759361,180547
OK,95,38,810,95,2014-08-01T10:25:00,6,20759810,180547
OK,105,34,810,105,2014-08-01T10:30:00,7,20760259,180547
OK,102,36,810,102,2014-08-01T10:35:00,8,20760708,180547
OK,85,43,810,85,2014-08-01T10:40:00,5,20761157,180547
OK,86,42,810,86,2014-08-01T10:45:00,9,20761606,180547
OK,87,42,810,87,2014-08-01T10:50:00,7,20762055,180547
OK,90,40,810,90,2014-08-01T10:55:00,4,20762504,180547
OK,87,42,810,87,2014-08-01T11:00:00,5,20762953,180547
OK,87,42,810,87,2014-08-01T11:05:00,8,20763402,180547
OK,110,33,810,110,2014-08-01T11:10:00,7,20763851,180547
OK,107,34,810,107,2014-08-01T11:15:00,7,20764299,180547
OK,95,38,810,95,2014-08-01T11:20:00,7,20764748,180547
OK,96,38,810,96,2014-08-01T11:25:00,6,20765197,180547
OK,114,32,810,114,2014-08-01T11:30:00,7,20765646,180547
OK,100,36,810,100,2014-08-01T11:35:00,12,20766095,180547
OK,97,37,810,97,2014-08-01T11:40:00,13,20766544,180547
OK,90,40,810,90,2014-08-01T11:45:00,11,20766993,180547
OK,100,36,810,100,2014-08-01T11:50:00,10,20767442,180547
OK,91,40,810,91,2014-08-01T11:55:00,11,20767891,180547
OK,90,40,810,90,2014-08-01T12:00:00,7,20768340,180547
OK,87,42,810,87,2014-08-01T12:05:00,14,20768789,180547
OK,89,41,810,89,2014-08-01T12:10:00,18,20769238,180547
OK,86,42,810,86,2014-08-01T12:15:00,14,20769687,180547
OK,77,47,810,77,2014-08-01T12:20:00,12,20770136,180547
OK,83,44,810,83,2014-08-01T12:25:00,4,20770585,180547
OK,82,44,810,82,2014-08-01T12:30:00,7,20771034,180547
OK,90,40,810,90,2014-08-01T12:35:00,11,20771483,180547
OK,80,45,810,80,2014-08-01T12:40:00,11,20771932,180547
OK,92,39,810,92,2014-08-01T12:45:00,10,20772381,180547
OK,81,45,810,81,2014-08-01T12:50:00,9,20772830,180547
OK,85,43,810,85,2014-08-01T12:55:00,12,20773279,180547
OK,105,34,810,105,2014-08-01T13:00:00,11,20773728,180547
OK,84,43,810,84,2014-08-01T13:05:00,11,20774177,180547
OK,83,44,810,83,2014-08-01T13:10:00,12,20774626,180547
OK,86,42,810,86,2014-08-01T13:15:00,7,20775075,180547
OK,89,41,810,89,2014-08-01T13:20:00,12,20775524,180547
OK,86,42,810,86,2014-08-01T13:25:00,16,20775973,180547
OK,102,36,810,102,2014-08-01T13:30:00,11,20776422,180547
OK,100,36,810,100,2014-08-01T13:35:00,10,20776871,180547
OK,83,44,810,83,2014-08-01T13:40:00,9,20777320,180547
OK,78,47,810,78,2014-08-01T13:45:00,5,20777769,180547
OK,101,36,810,101,2014-08-01T13:50:00,7,20778218,180547
OK,101,36,810,101,2014-08-01T13:55:00,9,20778667,180547
OK,94,39,810,94,2014-08-01T14:00:00,7,20779116,180547
OK,103,35,810,103,2014-08-01T14:05:00,11,20779565,180547
OK,101,36,810,101,2014-08-01T14:10:00,8,20780014,180547
OK,99,37,810,99,2014-08-01T14:15:00,5,20780463,180547
OK,87,42,810,87,2014-08-01T14:20:00,8,20780912,180547
OK,87,42,810,87,2014-08-01T14:25:00,6,20781361,180547
OK,97,37,810,97,2014-08-01T14:30:00,7,20781810,180547
OK,90,40,810,90,2014-08-01T14:35:00,4,20782259,180547
OK,73,50,810,73,2014-08-01T14:40:00,6,20782708,180547
OK,99,37,810,99,2014-08-01T14:45:00,8,20783157,180547
OK,85,43,810,85,2014-08-01T14:50:00,8,20783606,180547
OK,82,44,810,82,2014-08-01T14:55:00,6,20784055,180547
OK,97,37,810,97,2014-08-01T15:00:00,4,20784504,180547
OK,59,62,810,59,2014-08-01T15:05:00,3,20784953,180547
OK,71,51,810,71,2014-08-01T15:10:00,6,20785402,180547
OK,75,48,810,75,2014-08-01T15:15:00,6,20785851,180547
OK,82,44,810,82,2014-08-01T15:20:00,6,20786300,180547
OK,87,42,810,87,2014-08-01T15:25:00,11,20786749,180547
OK,85,43,810,85,2014-08-01T15:30:00,10,20787198,180547
OK,72,51,810,72,2014-08-01T15:35:00,10,20787647,180547
OK,76,48,810,76,2014-08-01T15:40:00,8,20788096,180547
OK,72,51,810,72,2014-08-01T15:45:00,6,20788545,180547
OK,71,51,810,71,2014-08-01T15:50:00,9,20788994,180547
OK,74,49,810,74,2014-08-01T15:55:00,8,20789443,180547
OK,78,47,810,78,2014-08-01T16:00:00,6,20789892,180547
OK,67,54,810,67,2014-08-01T16:05:00,6,20790341,180547
OK,43,85,810,43,2014-08-01T16:10:00,2,20790790,180547
OK,72,51,810,72,2014-08-01T16:15:00,2,20791239,180547
OK,92,39,810,92,2014-08-01T16:20:00,3,20791688,180547
OK,75,48,810,75,2014-08-01T16:25:00,4,20792137,180547
OK,59,62,810,59,2014-08-01T16:30:00,9,20792586,180547
OK,54,68,810,54,2014-08-01T16:35:00,5,20793035,180547
OK,58,63,810,58,2014-08-01T16:40:00,5,20793484,180547
OK,58,63,810,58,2014-08-01T16:45:00,5,20793933,180547
OK,55,66,810,55,2014-08-01T16:50:00,2,20794382,180547
OK,83,44,810,83,2014-08-01T16:55:00,2,20794831,180547
OK,94,39,810,94,2014-08-01T17:00:00,2,20795280,180547
OK,100,36,810,100,2014-08-01T17:05:00,4,20795729,180547
OK,79,46,810,79,2014-08-01T17:10:00,3,20796178,180547
OK,50,73,810,50,2014-08-01T17:15:00,1,20796627,180547
OK,79,46,810,79,2014-08-01T17:20:00,1,20797076,180547
OK,66,55,810,66,2014-08-01T17:25:00,1,20797525,180547
OK,66,55,810,66,2014-08-01T17:30:00,1,20797974,180547
OK,68,54,810,68,2014-08-01T17:35:00,2,20798423,180547
OK,72,51,810,72,2014-08-01T17:40:00,5,20798872,180547
OK,72,51,810,72,2014-08-01T17:45:00,5,20799321,180547
OK,115,31,810,115,2014-08-01T17:50:00,3,20799770,180547
OK,86,42,810,86,2014-08-01T17:55:00,3,20800219,180547
OK,86,42,810,86,2014-08-01T18:00:00,3,20800668,180547
OK,103,35,810,103,2014-08-01T18:05:00,3,20801117,180547
OK,61,60,810,61,2014-08-01T18:10:00,1,20801566,180547
OK,80,45,810,80,2014-08-01T18:15:00,3,20802015,180547
OK,82,44,810,82,2014-08-01T18:20:00,2,20802464,180547
OK,123,29,810,123,2014-08-01T18:25:00,1,20802913,180547
OK,109,33,810,109,2014-08-01T18:30:00,2,20803362,180547
OK,94,39,810,94,2014-08-01T18:35:00,4,20803811,180547
OK,99,37,810,99,2014-08-01T18:40:00,4,20804260,180547
OK,106,34,810,106,2014-08-01T18:45:00,1,20804709,180547
OK,122,30,810,122,2014-08-01T18:50:00,1,20805158,180547
OK,102,36,810,102,2014-08-01T18:55:00,2,20805607,180547
OK,83,44,810,83,2014-08-01T19:00:00,3,20806056,180547
OK,71,51,810,71,2014-08-01T19:05:00,3,20806505,180547
OK,62,59,810,62,2014-08-01T19:10:00,2,20806954,180547
OK,62,59,810,62,2014-08-01T19:15:00,0,20807403,180547
OK,62,59,810,62,2014-08-01T19:20:00,0,20807852,180547
OK,62,59,810,62,2014-08-01T19:25:00,0,20808301,180547
OK,62,59,810,62,2014-08-01T19:30:00,0,20808750,180547
OK,75,48,810,75,2014-08-01T19:35:00,1,20809199,180547
OK,90,40,810,90,2014-08-01T19:40:00,3,20809648,180547
OK,86,42,810,86,2014-08-01T19:45:00,4,20810097,180547
OK,74,49,810,74,2014-08-01T19:50:00,5,20810546,180547
OK,72,51,810,72,2014-08-01T19:55:00,2,20810995,180547
OK,78,47,810,78,2014-08-01T22:00:00,0,20816724,180547
OK,103,35,810,103,2014-08-01T22:05:00,1,20817173,180547
OK,94,39,810,94,2014-08-01T22:10:00,2,20817495,180547
OK,62,59,810,62,2014-08-02T00:00:00,0,20823163,180547
OK,62,59,810,62,2014-08-02T00:05:00,0,20823612,180547
OK,62,59,810,62,2014-08-02T00:10:00,0,20824061,180547
OK,62,59,810,62,2014-08-02T00:15:00,0,20824510,180547
OK,62,59,810,62,2014-08-02T00:20:00,0,20824959,180547
OK,48,76,810,48,2014-08-02T00:25:00,1,20825408,180547
OK,48,76,810,48,2014-08-02T00:30:00,1,20825857,180547
OK,48,76,810,48,2014-08-02T00:35:00,0,20826306,180547
OK,48,76,810,48,2014-08-02T00:40:00,0,20826755,180547
OK,48,76,810,48,2014-08-02T00:45:00,0,20827204,180547
OK,48,76,810,48,2014-08-02T00:50:00,0,20827653,180547
OK,48,76,810,48,2014-08-02T00:55:00,0,20828102,180547
OK,48,76,810,48,2014-08-02T01:00:00,0,20828551,180547
OK,48,76,810,48,2014-08-02T01:05:00,0,20829000,180547
OK,48,76,810,48,2014-08-02T01:10:00,0,20829449,180547
OK,48,76,810,48,2014-08-02T01:15:00,0,20829898,180547
OK,48,76,810,48,2014-08-02T01:20:00,0,20830347,180547
OK,48,76,810,48,2014-08-02T01:25:00,0,20830796,180547
OK,48,76,810,48,2014-08-02T01:30:00,0,20831245,180547
OK,48,76,810,48,2014-08-02T01:35:00,0,20831694,180547
OK,48,76,810,48,2014-08-02T01:40:00,0,20832143,180547
OK,48,76,810,48,2014-08-02T01:45:00,0,20832592,180547
OK,48,76,810,48,2014-08-02T01:50:00,0,20833041,180547
OK,48,76,810,48,2014-08-02T01:55:00,0,20833490,180547
OK,48,76,810,48,2014-08-02T02:00:00,0,20833939,180547
OK,48,76,810,48,2014-08-02T02:05:00,0,20834388,180547
OK,48,76,810,48,2014-08-02T02:10:00,0,20834837,180547
OK,48,76,810,48,2014-08-02T02:15:00,0,20835286,180547
OK,48,76,810,48,2014-08-02T02:20:00,0,20835735,180547
OK,48,76,810,48,2014-08-02T02:25:00,0,20836184,180547
OK,48,76,810,48,2014-08-02T02:30:00,0,20836633,180547
OK,48,76,810,48,2014-08-02T02:35:00,0,20837082,180547
OK,44,83,810,44,2014-08-02T02:40:00,1,20837531,180547
OK,44,83,810,44,2014-08-02T02:45:00,1,20837980,180547
OK,44,83,810,44,2014-08-02T02:50:00,0,20838429,180547
OK,44,83,810,44,2014-08-02T02:55:00,0,20838878,180547
OK,44,83,810,44,2014-08-02T03:00:00,0,20839327,180547
OK,44,83,810,44,2014-08-02T03:05:00,0,20839776,180547
OK,44,83,810,44,2014-08-02T03:10:00,0,20840225,180547
OK,48,76,810,48,2014-08-02T03:15:00,0,20840674,180547
OK,29,126,810,29,2014-08-02T03:20:00,1,20841123,180547
OK,29,126,810,29,2014-08-02T03:25:00,0,20841572,180547
OK,29,126,810,29,2014-08-02T03:30:00,0,20842021,180547
OK,29,126,810,29,2014-08-02T03:35:00,0,20842470,180547
OK,29,126,810,29,2014-08-02T03:40:00,0,20842919,180547
OK,29,126,810,29,2014-08-02T03:45:00,0,20843368,180547
OK,29,126,810,29,2014-08-02T03:50:00,0,20843817,180547
OK,29,126,810,29,2014-08-02T03:55:00,0,20844266,180547
OK,84,43,810,84,2014-08-02T04:20:00,1,20845712,180547
OK,74,49,810,74,2014-08-02T04:25:00,2,20846268,180547
OK,43,85,810,43,2014-08-02T04:35:00,1,20846635,180547
OK,75,48,810,75,2014-08-02T04:45:00,1,20847277,180547
OK,75,48,810,75,2014-08-02T04:50:00,0,20847643,180547
OK,42,87,810,42,2014-08-02T05:40:00,3,20850504,180547
OK,54,68,810,54,2014-08-02T05:50:00,3,20851163,180547
OK,96,38,810,96,2014-08-02T06:00:00,0,20851720,180547
OK,77,47,810,77,2014-08-02T06:05:00,2,20852169,180547
OK,122,30,810,122,2014-08-02T06:10:00,6,20852618,180547
OK,115,31,810,115,2014-08-02T06:15:00,2,20853067,180547
OK,98,37,810,98,2014-08-02T06:20:00,2,20853516,180547
OK,52,70,810,52,2014-08-02T06:25:00,1,20853965,180547
OK,79,46,810,79,2014-08-02T06:30:00,4,20854414,180547
OK,92,39,810,92,2014-08-02T06:35:00,6,20854863,180547
OK,91,40,810,91,2014-08-02T06:40:00,2,20855312,180547
OK,102,36,810,102,2014-08-02T06:45:00,1,20855761,180547
OK,87,42,810,87,2014-08-02T06:50:00,4,20856210,180547
OK,85,43,810,85,2014-08-02T06:55:00,5,20856659,180547
OK,80,45,810,80,2014-08-02T07:00:00,0,20857108,180547
OK,84,43,810,84,2014-08-02T07:05:00,2,20857557,180547
OK,71,51,810,71,2014-08-02T07:10:00,2,20858006,180547
OK,85,43,810,85,2014-08-02T07:15:00,3,20858455,180547
OK,101,36,810,101,2014-08-02T07:20:00,3,20858904,180547
OK,104,35,810,104,2014-08-02T07:25:00,2,20859353,180547
OK,93,39,810,93,2014-08-02T07:30:00,1,20859802,180547
OK,93,39,810,93,2014-08-02T07:35:00,0,20860251,180547
OK,95,38,810,95,2014-08-02T07:40:00,2,20860700,180547
OK,88,41,810,88,2014-08-02T07:45:00,2,20861149,180547
OK,88,41,810,88,2014-08-02T07:50:00,10,20861598,180547
OK,82,44,810,82,2014-08-02T07:55:00,9,20862047,180547
OK,94,39,810,94,2014-08-02T08:00:00,2,20862496,180547
OK,83,44,810,83,2014-08-02T08:05:00,1,20862945,180547
OK,86,42,810,86,2014-08-02T08:10:00,6,20863394,180547
OK,89,41,810,89,2014-08-02T08:15:00,7,20863843,180547
OK,99,37,810,99,2014-08-02T08:20:00,4,20864292,180547
OK,85,43,810,85,2014-08-02T08:25:00,5,20864741,180547
OK,57,64,810,57,2014-08-02T08:30:00,6,20865190,180547
OK,87,42,810,87,2014-08-02T08:35:00,7,20865639,180547
OK,94,39,810,94,2014-08-02T08:40:00,4,20866088,180547
OK,70,52,810,70,2014-08-02T08:45:00,2,20866537,180547
OK,46,79,810,46,2014-08-02T08:50:00,1,20866986,180547
OK,88,41,810,88,2014-08-02T08:55:00,7,20867435,180547
OK,87,42,810,87,2014-08-02T09:00:00,9,20867884,180547
OK,91,40,810,91,2014-08-02T09:05:00,6,20868333,180547
OK,64,57,810,64,2014-08-02T09:10:00,2,20868782,180547
OK,64,57,810,64,2014-08-02T09:15:00,4,20869231,180547
OK,96,38,810,96,2014-08-02T09:20:00,10,20869680,180547
OK,101,36,810,101,2014-08-02T09:25:00,8,20870129,180547
OK,78,47,810,78,2014-08-02T09:30:00,3,20870578,180547
OK,85,43,810,85,2014-08-02T09:35:00,4,20871027,180547
OK,79,46,810,79,2014-08-02T09:40:00,4,20871476,180547
OK,88,41,810,88,2014-08-02T09:45:00,6,20871925,180547
OK,100,36,810,100,2014-08-02T09:50:00,4,20872374,180547
OK,92,39,810,92,2014-08-02T09:55:00,3,20872823,180547
OK,120,30,810,120,2014-08-02T10:00:00,3,20873272,180547
OK,48,76,810,48,2014-08-02T10:05:00,3,20873721,180547
OK,92,39,810,92,2014-08-02T10:10:00,9,20874170,180547
OK,89,41,810,89,2014-08-02T10:15:00,7,20874619,180547
OK,93,39,810,93,2014-08-02T10:20:00,6,20875068,180547
OK,97,37,810,97,2014-08-02T10:25:00,7,20875517,180547
OK,90,40,810,90,2014-08-02T10:30:00,9,20875966,180547
OK,96,38,810,96,2014-08-02T10:35:00,7,20876415,180547
OK,106,34,810,106,2014-08-02T10:40:00,1,20876864,180547
OK,99,37,810,99,2014-08-02T10:45:00,4,20877313,180547
OK,99,37,810,99,2014-08-02T10:50:00,5,20877762,180547
OK,89,41,810,89,2014-08-02T10:55:00,7,20878211,180547
OK,90,40,810,90,2014-08-02T11:00:00,10,20878660,180547
OK,94,39,810,94,2014-08-02T11:05:00,8,20879109,180547
OK,85,43,810,85,2014-08-02T11:10:00,4,20879558,180547
OK,84,43,810,84,2014-08-02T11:15:00,5,20880007,180547
OK,75,48,810,75,2014-08-02T11:20:00,6,20880456,180547
OK,72,51,810,72,2014-08-02T11:25:00,4,20880905,180547
OK,93,39,810,93,2014-08-02T11:30:00,4,20881354,180547
OK,93,39,810,93,2014-08-02T11:35:00,2,20881803,180547
OK,100,36,810,100,2014-08-02T11:40:00,4,20882252,180547
OK,100,36,810,100,2014-08-02T11:45:00,5,20882701,180547
OK,66,55,810,66,2014-08-02T11:50:00,1,20883150,180547
OK,96,38,810,96,2014-08-02T11:55:00,6,20883599,180547
OK,103,35,810,103,2014-08-02T12:00:00,9,20884048,180547
OK,93,39,810,93,2014-08-02T12:05:00,4,20884497,180547
OK,53,69,810,53,2014-08-02T12:10:00,6,20884946,180547
OK,86,42,810,86,2014-08-02T12:15:00,10,20885395,180547
OK,86,42,810,86,2014-08-02T12:20:00,7,20885844,180547
OK,74,49,810,74,2014-08-02T12:25:00,6,20886293,180547
OK,95,38,810,95,2014-08-02T12:30:00,8,20886742,180547
OK,100,36,810,100,2014-08-02T12:35:00,7,20887191,180547
OK,102,36,810,102,2014-08-02T12:40:00,3,20887640,180547
OK,93,39,810,93,2014-08-02T12:45:00,2,20888089,180547
OK,92,39,810,92,2014-08-02T12:50:00,1,20888538,180547
OK,96,38,810,96,2014-08-02T12:55:00,8,20888987,180547
OK,78,47,810,78,2014-08-02T13:00:00,6,20889436,180547
OK,95,38,810,95,2014-08-02T13:05:00,4,20889885,180547
OK,94,39,810,94,2014-08-02T13:10:00,8,20890334,180547
OK,93,39,810,93,2014-08-02T13:15:00,5,20890783,180547
OK,102,36,810,102,2014-08-02T13:20:00,4,20891232,180547
OK,98,37,810,98,2014-08-02T13:25:00,1,20891681,180547
OK,101,36,810,101,2014-08-02T13:30:00,3,20892130,180547
OK,101,36,810,101,2014-08-02T13:35:00,3,20892579,180547
OK,91,40,810,91,2014-08-02T13:40:00,5,20893028,180547
OK,91,40,810,91,2014-08-02T13:45:00,9,20893477,180547
OK,95,38,810,95,2014-08-02T13:50:00,8,20893926,180547
OK,96,38,810,96,2014-08-02T13:55:00,4,20894375,180547
OK,99,37,810,99,2014-08-02T14:00:00,7,20894824,180547
OK,85,43,810,85,2014-08-02T14:05:00,5,20895273,180547
OK,99,37,810,99,2014-08-02T14:10:00,3,20895722,180547
OK,99,37,810,99,2014-08-02T14:15:00,3,20896171,180547
OK,99,37,810,99,2014-08-02T14:20:00,5,20896620,180547
OK,100,36,810,100,2014-08-02T14:25:00,4,20897069,180547
OK,92,39,810,92,2014-08-02T14:30:00,4,20897518,180547
OK,92,39,810,92,2014-08-02T14:35:00,5,20897967,180547
OK,83,44,810,83,2014-08-02T14:40:00,2,20898416,180547
OK,90,40,810,90,2014-08-02T14:45:00,3,20898865,180547
OK,94,39,810,94,2014-08-02T14:50:00,2,20899314,180547
OK,79,46,810,79,2014-08-02T14:55:00,8,20899763,180547
OK,76,48,810,76,2014-08-02T15:00:00,7,20900212,180547
OK,96,38,810,96,2014-08-02T15:05:00,6,20900661,180547
OK,95,38,810,95,2014-08-02T15:10:00,6,20901110,180547
OK,74,49,810,74,2014-08-02T15:15:00,2,20901559,180547
OK,100,36,810,100,2014-08-02T15:20:00,2,20902008,180547
OK,97,37,810,97,2014-08-02T15:25:00,4,20902457,180547
OK,92,39,810,92,2014-08-02T15:30:00,8,20902906,180547
OK,91,40,810,91,2014-08-02T15:35:00,6,20903355,180547
OK,77,47,810,77,2014-08-02T15:40:00,1,20903804,180547
OK,82,44,810,82,2014-08-02T15:45:00,4,20904253,180547
OK,56,65,810,56,2014-08-02T15:50:00,1,20904702,180547
OK,116,31,810,116,2014-08-02T15:55:00,3,20905151,180547
OK,115,31,810,115,2014-08-02T16:00:00,3,20905600,180547
OK,125,29,810,125,2014-08-02T16:05:00,3,20906049,180547
OK,123,29,810,123,2014-08-02T16:10:00,5,20906498,180547
OK,114,32,810,114,2014-08-02T16:15:00,4,20906947,180547
OK,117,31,810,117,2014-08-02T16:20:00,3,20907396,180547
OK,126,29,810,126,2014-08-02T16:25:00,4,20907845,180547
OK,114,32,810,114,2014-08-02T16:30:00,7,20908294,180547
OK,112,32,810,112,2014-08-02T16:35:00,11,20908743,180547
OK,115,31,810,115,2014-08-02T16:40:00,4,20909192,180547
OK,125,29,810,125,2014-08-02T16:45:00,1,20909641,180547
OK,84,43,810,84,2014-08-02T16:50:00,2,20910090,180547
OK,111,33,810,111,2014-08-02T16:55:00,4,20910539,180547
OK,108,34,810,108,2014-08-02T17:00:00,3,20910988,180547
OK,118,31,810,118,2014-08-02T17:05:00,5,20911437,180547
OK,124,29,810,124,2014-08-02T17:10:00,1,20911886,180547
OK,124,29,810,124,2014-08-02T17:15:00,0,20912335,180547
OK,124,29,810,124,2014-08-02T17:20:00,0,20912784,180547
OK,88,41,810,88,2014-08-02T17:25:00,2,20913233,180547
OK,109,33,810,109,2014-08-02T17:30:00,4,20913682,180547
OK,91,40,810,91,2014-08-02T17:35:00,3,20914131,180547
OK,86,42,810,86,2014-08-02T17:40:00,4,20914580,180547
OK,86,42,810,86,2014-08-02T17:45:00,3,20915029,180547
OK,61,60,810,61,2014-08-02T17:50:00,2,20915478,180547
OK,31,118,810,31,2014-08-02T17:55:00,0,20915927,180547
OK,101,36,810,101,2014-08-02T18:00:00,1,20916376,180547
OK,101,36,810,101,2014-08-02T18:05:00,1,20916825,180547
OK,97,37,810,97,2014-08-02T18:10:00,3,20917274,180547
OK,80,45,810,80,2014-08-02T18:15:00,6,20917723,180547
OK,90,40,810,90,2014-08-02T18:20:00,5,20918172,180547
OK,77,47,810,77,2014-08-02T18:25:00,4,20918621,180547
OK,68,54,810,68,2014-08-02T18:30:00,5,20919070,180547
OK,68,54,810,68,2014-08-02T18:35:00,2,20919519,180547
OK,89,41,810,89,2014-08-02T18:40:00,3,20919968,180547
OK,89,41,810,89,2014-08-02T18:45:00,4,20920417,180547
OK,79,46,810,79,2014-08-02T18:50:00,6,20920866,180547
OK,79,46,810,79,2014-08-02T18:55:00,6,20921315,180547
OK,95,38,810,95,2014-08-02T19:00:00,3,20921764,180547
OK,79,46,810,79,2014-08-02T19:05:00,4,20922213,180547
OK,69,53,810,69,2014-08-02T19:10:00,3,20922662,180547
OK,91,40,810,91,2014-08-02T19:15:00,0,20923111,180547
OK,88,41,810,88,2014-08-02T19:20:00,3,20923560,180547
OK,76,48,810,76,2014-08-02T19:25:00,4,20924009,180547
OK,62,59,810,62,2014-08-02T19:30:00,1,20924458,180547
OK,84,43,810,84,2014-08-02T19:35:00,1,20924907,180547
OK,85,43,810,85,2014-08-02T19:40:00,1,20925356,180547
OK,76,48,810,76,2014-08-02T19:45:00,3,20925805,180547
OK,53,69,810,53,2014-08-02T19:50:00,2,20926254,180547
OK,87,42,810,87,2014-08-02T19:55:00,3,20926703,180547
OK,93,39,810,93,2014-08-02T20:00:00,4,20927152,180547
OK,72,51,810,72,2014-08-02T20:05:00,3,20927601,180547
OK,56,65,810,56,2014-08-02T20:10:00,2,20928050,180547
OK,53,69,810,53,2014-08-02T20:15:00,1,20928499,180547
OK,53,69,810,53,2014-08-02T20:20:00,0,20928948,180547
OK,53,69,810,53,2014-08-02T20:25:00,0,20929397,180547
OK,53,69,810,53,2014-08-02T20:30:00,0,20929846,180547
OK,46,79,810,46,2014-08-02T20:35:00,1,20930295,180547
OK,101,36,810,101,2014-08-02T20:40:00,3,20930744,180547
OK,90,40,810,90,2014-08-02T20:45:00,5,20931193,180547
OK,90,40,810,90,2014-08-02T20:50:00,1,20931642,180547
OK,90,40,810,90,2014-08-02T20:55:00,0,20932091,180547
OK,90,40,810,90,2014-08-02T21:00:00,0,20932540,180547
OK,110,33,810,110,2014-08-02T21:05:00,1,20932989,180547
OK,110,33,810,110,2014-08-02T21:10:00,1,20933438,180547
OK,55,66,810,55,2014-08-02T21:15:00,3,20933887,180547
OK,57,64,810,57,2014-08-02T21:20:00,4,20934336,180547
OK,63,58,810,63,2014-08-02T21:25:00,3,20934785,180547
OK,70,52,810,70,2014-08-02T21:30:00,2,20935234,180547
OK,63,58,810,63,2014-08-02T21:35:00,0,20935683,180547
OK,52,70,810,52,2014-08-02T21:40:00,1,20936132,180547
OK,52,70,810,52,2014-08-02T21:45:00,1,20936581,180547
OK,109,33,810,109,2014-08-02T21:50:00,1,20937030,180547
OK,109,33,810,109,2014-08-02T21:55:00,0,20937479,180547
OK,109,33,810,109,2014-08-02T22:00:00,0,20937928,180547
OK,109,33,810,109,2014-08-02T22:05:00,0,20938377,180547
OK,74,49,810,74,2014-08-02T22:10:00,2,20938826,180547
OK,52,70,810,52,2014-08-02T22:15:00,3,20939275,180547
OK,68,54,810,68,2014-08-02T22:20:00,3,20939724,180547
OK,61,60,810,61,2014-08-02T22:25:00,1,20940173,180547
OK,61,60,810,61,2014-08-02T22:30:00,1,20940622,180547
OK,61,60,810,61,2014-08-02T22:35:00,0,20941071,180547
OK,55,66,810,55,2014-08-02T22:40:00,3,20941520,180547
OK,52,70,810,52,2014-08-02T22:45:00,3,20941969,180547
OK,51,72,810,51,2014-08-02T22:50:00,1,20942418,180547
OK,56,65,810,56,2014-08-02T22:55:00,3,20942867,180547
OK,56,65,810,56,2014-08-02T23:00:00,1,20943316,180547
OK,64,57,810,64,2014-08-02T23:10:00,4,20943765,180547
OK,69,53,810,69,2014-08-02T23:15:00,1,20944214,180547
OK,69,53,810,69,2014-08-02T23:20:00,0,20944663,180547
OK,69,53,810,69,2014-08-02T23:25:00,0,20945112,180547
OK,43,85,810,43,2014-08-02T23:30:00,1,20945561,180547
OK,78,47,810,78,2014-08-02T23:35:00,1,20946010,180547
OK,72,51,810,72,2014-08-02T23:40:00,2,20946459,180547
OK,46,79,810,46,2014-08-02T23:45:00,2,20946908,180547
OK,46,79,810,46,2014-08-02T23:50:00,2,20947357,180547
OK,54,68,810,54,2014-08-02T23:55:00,1,20947806,180547
OK,54,68,810,54,2014-08-03T00:00:00,1,20948255,180547
OK,58,63,810,58,2014-08-03T00:05:00,2,20948704,180547
OK,66,55,810,66,2014-08-03T00:10:00,3,20949153,180547
OK,67,54,810,67,2014-08-03T00:15:00,1,20949601,180547
OK,57,64,810,57,2014-08-03T00:20:00,2,20950050,180547
OK,55,66,810,55,2014-08-03T00:25:00,3,20950499,180547
OK,55,66,810,55,2014-08-03T00:30:00,0,20950948,180547
OK,65,56,810,65,2014-08-03T00:35:00,1,20951397,180547
OK,65,56,810,65,2014-08-03T00:40:00,1,20951846,180547
OK,65,56,810,65,2014-08-03T00:45:00,0,20952295,180547
OK,57,64,810,57,2014-08-03T00:50:00,2,20952744,180547
OK,59,62,810,59,2014-08-03T00:55:00,1,20953193,180547
OK,59,62,810,59,2014-08-03T01:00:00,0,20953642,180547